Location: Bay Shore Mobile Home Park
(38.5762°N, 75.0841°W)
Time: 08:00:48
(UTC+00:00)

Spot 4 Rocket - Pass Details

Date: 15 November 2025
Orbit: 769 x 773 km, 98.8° (Epoch: 05 December)

Event Time Altitude Azimuth Distance (km) Brightness Sun altitude
Rises 23:33:34 0° 168° (SSE) 3,225 7.2 -20.8°
Reaches altitude 10° 23:35:52 10° 170° (S) 2,302 6.4 -21.3°
Maximum altitude 23:40:56 78° 257° (WSW) 790 4.1 -22.3°
Drops below altitude 10° 23:46:03 10° 344° (NNW) 2,317 6.6 -23.3°
Sets 23:48:22 0° 345° (NNW) 3,248 7.4 -23.7°
